User: anonymous   Login
Location: Deer Lake
(49.1830°N, 57.4330°W)
Time: 18:52:54
(UTC-02:-30)
Language:

NOSS 3-1 (C) - Orbit

View from above orbital plane
View from above orbital plane
View from above satellite
View from above satellite

Ground track
Ground track

The orbit data is extracted from the following two-line orbital elements,

1 26907U 01040C   17141.88850104 0.00000020  00000-0  24126-4 0    01
2 26907  63.4128  95.9742 0368000 358.7357   1.2643 13.41268454    05
Epoch (UTC): 21 May 2017 21:19:26
Eccentricity: 0.0368000
inclination: 63.4128°
perigee height: 829 km
apogee height: 1380 km
right ascension of ascending node: 95.9742°
argument of perigee: 358.7357°
revolutions per day: 13.41268454
mean anomaly at epoch: 1.2643°
orbit number at epoch: 0

The dashed part of the orbit path shows where the satellite is in the earth's shadow,  

DLR